Location: Haliburton Scout Reserve
(45.0900°N, 78.3200°W)
Time: 19:13:18
(UTC-04:00)

STRAND 1 - Pass Details

Date: 31 March 2023
Orbit: 767 x 779 km, 98.4° (Epoch: 06 June)

Event Time Altitude Azimuth Distance (km) Brightness Sun altitude
Rises 20:10:02 0° 13° (NNE) 3,250 ? -6.1°
Reaches altitude 10° 20:12:21 10° 13° (NNE) 2,318 ? -6.5°
Maximum altitude 20:17:28 89° 288° (WNW) 774 ? -7.4°
Drops below altitude 10° 20:22:33 10° 196° (SSW) 2,301 ? -8.3°
Sets 20:24:50 0° 196° (SSW) 3,223 ? -8.6°
